Location: Tierra del Sol
(32.6128°N, 116.3319°W)
Time: 01:51:47
(UTC-07:00)

Hubble Space Telescope - Pass Details

Date: 07 October 2017
Orbit: 537 x 541 km, 28.5° (Epoch: 19 October)

Event Time Altitude Azimuth Distance (km) Brightness Sun altitude
Exits shadow 04:12:03 16° 108° (ESE) 1,437 3.5 -32.5°
Drops below altitude 10° 04:13:01 10° 103° (ESE) 1,789 4.1 -32.3°
Sets 04:15:20 0° 97° (E) 2,681 5.3 -31.8°
